Temp
-7 -6 -6 -6 -6 -6 -6 -6 -7 -7 -7 -7 -7 -7 -7 -8 -7 -7 -7 -7 -8 -8 -8 -9 -9 -9 -9 -9 -9 -9 -9 -9 -9 -9 -9 -9 -9 -9 -9 -9 -9 -9 -9
-7 -7 -6 -6 -6 -6 -6 -6 -7 -7 -6 -6 -7 -7 -7 -7 -8 -7 -7 -7 -7 -8 -8 -8 -9 -9 -9 -9 -9 -9 -9 -9 -9 -9 -9 -9 -9 -9 -9 -9 -9 -9 -9
-6 -7 -6 -6 -7 -6 -6 -6 -6 -7 -6 -7 -6 -7 -7 -7 -7 -7 -7 -7 -7 -7 -8 -8 -9 -9 -9 -9 -9 -9 -9 -9 -9 -8 -9 -9 -9 -9 -8 -9 -9 -9 -9
-6 -6 -6 -6 -6 -6 -6 -6 -6 -7 -7 -7 -7 -7 -7 -7 -7 -7 -8 -7 -7 -7 -8 -8 -8 -9 -9 -9 -9 -9 -9 -9 -8 -8 -8 -8 -9 -9 -9 -9 -8 -8 -9
-6 -7 -7 -6 -6 -6 -6 -6 -6 -6 -7 -7 -7 -7 -7 -7 -7 -7 -7 -8 -8 -8 -8 -8 -9 -9 -9 -9 -9 -9 -9 -9 -8 -8 -8 -8 -8 -9 -9 -9 -8 -8 -8
-6 -6 -6 -6 -6 -6 -5 -6 -6 -6 -6 -6 -7 -7 -7 -7 -7 -7 -7 -7 -7 -8 -8 -8 -8 -8 -9 -8 -8 -9 -9 -9 -8 -8 -8 -8 -8 -8 -8 -8 -8 -8 -8
-6 -6 -6 -6 -6 -6 -5 -6 -6 -6 -6 -6 -7 -7 -6 -7 -7 -7 -7 -7 -7 -7 -7 -7 -8 -8 -8 -8 -8 -9 -9 -9 -9 -8 -8 -8 -8 -8 -8 -8 -8 -8 -8
-6 -6 -6 -6 -6 -5 -5 -6 -6 -6 -6 -6 -6 -6 -7 -7 -7 -7 -7 -7 -7 -7 -7 -7 -7 -7 -8 -8 -8 -8 -8 -9 -9 -9 -8 -8 -8 -8 -8 -8 -8 -8 -8
-6 -6 -6 -6 -5 -5 -5 -6 -6 -6 -6 -7 -6 -6 -6 -7 -7 -7 -7 -7 -7 -7 -7 -7 -7 -7 -8 -8 -8 -8 -8 -8 -8 -8 -8 -8 -8 -8 -8 -8 -8 -8 -8
-6 -6 -6 -6 -5 -5 -5 -6 -6 -6 -6 -6 -6 -7 -6 -7 -7 -7 -7 -7 -7 -7 -7 -7 -7 -7 -8 -8 -8 -8 -8 -8 -8 -8 -8 -8 -8 -8 -8 -8 -8 -8 -8
-6 -6 -6 -5 -5 -5 -5 -6 -6 -6 -6 -6 -6 -7 -7 -7 -7 -7 -7 -6 -7 -7 -7 -7 -7 -8 -8 -8 -7 -8 -8 -8 -8 -8 -8 -8 -8 -8 -8 -8 -8 -8 -8
-6 -6 -6 -6 -5 -6 -6 -6 -6 -6 -6 -6 -6 -6 -7 -7 -7 -7 -7 -6 -7 -7 -7 -7 -7 -7 -8 -8 -8 -8 -8 -8 -8 -8 -8 -8 -8 -8 -8 -8 -8 -8 -8
-6 -6 -6 -6 -6 -6 -6 -6 -6 -6 -6 -6 -6 -6 -6 -7 -6 -7 -7 -7 -7 -8 -8 -8 -7 -8 -8 -8 -8 -8 -8 -8 -8 -8 -8 -8 -8 -8 -8 -8 -8 -8 -8
-6 -6 -6 -6 -6 -6 -6 -6 -6 -6 -6 -6 -6 -6 -6 -6 -6 -7 -7 -7 -7 -8 -8 -8 -7 -8 -8 -8 -8 -9 -8 -8 -8 -8 -8 -8 -8 -8 -8 -8 -8 -8 -8
-7 -7 -7 -7 -7 -7 -6 -6 -6 -6 -6 -6 -6 -7 -6 -6 -6 -6 -6 -7 -7 -7 -7 -7 -7 -7 -7 -8 -8 -8 -7 -8 -8 -8 -8 -8 -7 -7 -8 -8 -8 -7 -7
-7 -7 -7 -7 -7 -7 -7 -7 -7 -6 -7 -7 -6 -6 -7 -7 -7 -7 -6 -6 -6 -7 -7 -7 -7 -7 -7 -7 -8 -8 -8 -8 -8 -8 -8 -8 -8 -8 -7 -7 -7 -7 -7
-7 -7 -7 -7 -7 -7 -7 -7 -7 -7 -7 -7 -6 -6 -6 -6 -6 -6 -6 -6 -6 -6 -6 -6 -6 -6 -6 -7 -7 -7 -7 -7 -8 -8 -8 -8 -8 -8 -8 -7 -7 -7 -7
-8 -8 -8 -8 -8 -7 -7 -7 -7 -7 -7 -7 -7 -6 -6 -6 -6 -6 -7 -7 -7 -7 -7 -7 -7 -7 -7 -7 -7 -7 -7 -7 -7 -7 -7 -7 -8 -8 -8 -7 -7 -6 -6
-7 -7 -7 -7 -7 -7 -7 -7 -7 -8 -7 -7 -7 -7 -7 -7 -7 -6 -7 -7 -7 -7 -7 -7 -7 -6 -7 -7 -7 -7 -7 -7 -7 -7 -7 -7 -7 -7 -7 -8 -7 -7 -7
-7 -7 -7 -7 -7 -7 -7 -7 -7 -7 -7 -7 -7 -7 -7 -6 -6 -6 -7 -7 -6 -6 -7 -7 -7 -7 -6 -6 -7 -7 -7 -7 -7 -7 -7 -7 -7 -7 -7 -7 -7 -7 -6
-7 -7 -7 -7 -7 -7 -7 -6 -6 -6 -6 -6 -6 -6 -6 -6 -6 -6 -6 -6 -6 -6 -6 -6 -6 -7 -7 -7 -7 -6 -6 -6 -7 -6 -6 -6 -6 -6 -7 -7 -7 -7 -7
-7 -7 -7 -7 -7 -6 -6 -6 -6 -6 -6 -6 -6 -6 -6 -6 -6 -6 -6 -6 -7 -6 -6 -6 -7 -7 -7 -7 -7 -7 -7 -6 -7 -7 -6 -7 -6 -6 -7 -7 -7 -7 -7
-7 -7 -7 -7 -7 -7 -6 -6 -6 -6 -6 -6 -6 -6 -6 -6 -6 -7 -6 -6 -6 -7 -7 -7 -7 -7 -7 -7 -7 -7 -7 -7 -7 -7 -7 -7 -7 -7 -7 -7 -7 -7 -7
-7 -7 -7 -7 -7 -7 -7 -6 -6 -6 -6 -6 -6 -6 -6 -6 -6 -6 -6 -7 -7 -6 -6 -6 -7 -7 -7 -7 -7 -7 -7 -7 -7 -7 -7 -7 -7 -7 -7 -7 -7 -7 -7
-7 -7 -7 -7 -7 -7 -7 -7 -7 -6 -6 -6 -6 -6 -6 -6 -6 -6 -6 -6 -6 -6 -7 -7 -7 -6 -7 -7 -6 -7 -7 -6 -7 -7 -7 -6 -7 -7 -7 -7 -7 -7 -7
-8 -8 -7 -8 -8 -7 -7 -7 -7 -7 -7 -7 -7 -7 -7 -7 -7 -7 -7 -7 -7 -7 -7 -7 -7 -7 -7 -7 -7 -7 -7 -7 -7 -7 -7 -6 -7 -7 -7 -7 -7 -7 -7
Height
5913 5911 5911 5912 5913 5913 5913 5913 5912 5912 5910 5910 5910 5911 5911 5910 5909 5907 5907 5905 5904 5904 5905 5908 5910 5913 5916 5917 5918 5919 5921 5922 5924 5926 5928 5929 5930 5931 5933 5935 5935 5937 5939
5912 5911 5911 5911 5912 5912 5912 5912 5912 5911 5910 5909 5909 5911 5911 5910 5908 5908 5908 5907 5906 5906 5908 5910 5911 5914 5916 5917 5919 5920 5921 5922 5925 5927 5928 5929 5930 5931 5933 5935 5936 5937 5939
5912 5912 5911 5911 5911 5911 5912 5912 5912 5910 5911 5910 5911 5912 5911 5910 5910 5910 5909 5909 5908 5908 5911 5912 5914 5915 5917 5918 5919 5921 5922 5923 5925 5927 5929 5930 5930 5930 5932 5935 5936 5938 5939
5912 5911 5911 5912 5912 5913 5912 5912 5912 5910 5911 5909 5910 5911 5911 5910 5910 5910 5911 5911 5911 5912 5913 5914 5915 5917 5917 5918 5919 5921 5923 5925 5926 5927 5929 5930 5931 5931 5932 5934 5936 5938 5939
5909 5911 5910 5911 5911 5912 5912 5912 5912 5911 5911 5911 5911 5910 5910 5910 5910 5910 5911 5911 5912 5913 5914 5915 5915 5916 5917 5918 5920 5922 5923 5926 5927 5927 5929 5930 5932 5932 5933 5934 5936 5938 5939
5907 5909 5909 5910 5910 5910 5909 5911 5911 5911 5911 5912 5911 5911 5911 5911 5912 5912 5912 5912 5912 5913 5913 5915 5915 5917 5918 5919 5921 5922 5924 5926 5927 5927 5928 5930 5931 5932 5933 5934 5935 5936 5938
5905 5906 5906 5907 5909 5909 5909 5909 5910 5911 5911 5911 5911 5911 5911 5912 5912 5911 5912 5912 5912 5912 5913 5915 5916 5916 5917 5918 5920 5922 5923 5925 5926 5928 5929 5930 5930 5932 5933 5934 5934 5935 5937
5903 5904 5904 5905 5906 5907 5909 5909 5909 5909 5910 5910 5910 5911 5911 5911 5911 5910 5911 5913 5913 5913 5915 5916 5916 5916 5917 5918 5919 5921 5923 5924 5925 5927 5928 5929 5930 5931 5932 5933 5934 5935 5935
5900 5900 5901 5902 5904 5905 5907 5908 5908 5909 5910 5910 5909 5910 5909 5910 5910 5910 5911 5912 5913 5914 5915 5915 5916 5917 5917 5918 5919 5919 5921 5923 5925 5926 5927 5928 5929 5930 5931 5932 5933 5934 5934
5896 5896 5897 5898 5900 5903 5905 5907 5908 5908 5909 5909 5910 5910 5910 5910 5910 5911 5910 5910 5911 5912 5914 5915 5915 5916 5917 5918 5919 5920 5921 5922 5924 5925 5927 5928 5928 5929 5929 5930 5931 5931 5932
5895 5895 5895 5895 5898 5901 5903 5906 5907 5908 5909 5909 5910 5911 5911 5910 5910 5910 5908 5907 5909 5911 5913 5914 5915 5916 5917 5917 5918 5919 5921 5922 5923 5923 5924 5925 5926 5927 5928 5929 5928 5928 5929
5894 5894 5895 5895 5898 5900 5902 5905 5906 5908 5909 5909 5911 5911 5911 5911 5911 5911 5909 5907 5908 5910 5912 5913 5913 5914 5915 5916 5917 5918 5919 5920 5921 5922 5922 5923 5924 5925 5926 5927 5927 5927 5927
5891 5892 5893 5895 5898 5900 5902 5904 5905 5907 5908 5908 5910 5911 5911 5911 5911 5910 5909 5909 5909 5910 5911 5911 5912 5913 5914 5915 5915 5915 5916 5916 5917 5918 5919 5920 5921 5922 5923 5923 5924 5924 5925
5890 5891 5892 5894 5896 5899 5902 5903 5904 5906 5906 5907 5908 5909 5910 5910 5909 5909 5909 5910 5910 5909 5910 5910 5910 5911 5912 5912 5913 5912 5912 5913 5914 5915 5915 5916 5918 5918 5919 5920 5920 5921 5921
5888 5890 5892 5893 5894 5897 5899 5902 5903 5904 5905 5906 5907 5908 5908 5908 5908 5909 5908 5909 5909 5908 5909 5909 5909 5909 5909 5910 5909 5908 5908 5910 5911 5911 5912 5912 5912 5913 5915 5915 5916 5916 5917
5887 5890 5891 5892 5893 5895 5897 5899 5901 5903 5904 5905 5906 5907 5908 5908 5908 5908 5908 5907 5908 5908 5908 5907 5907 5908 5908 5908 5907 5907 5907 5908 5908 5908 5908 5907 5906 5908 5908 5909 5909 5910 5911
5885 5887 5889 5891 5891 5893 5895 5897 5899 5901 5902 5903 5904 5905 5906 5907 5907 5907 5907 5907 5906 5906 5907 5906 5905 5906 5906 5906 5905 5905 5905 5905 5905 5904 5904 5903 5903 5903 5902 5902 5902 5903 5904
5887 5888 5889 5890 5891 5893 5894 5896 5897 5898 5899 5901 5902 5903 5904 5904 5905 5905 5905 5905 5905 5905 5905 5904 5905 5904 5903 5903 5903 5902 5902 5901 5901 5901 5900 5900 5899 5898 5897 5896 5894 5895 5897
5886 5888 5889 5889 5890 5891 5893 5894 5894 5894 5896 5896 5897 5899 5901 5902 5902 5902 5903 5902 5902 5902 5901 5900 5900 5900 5900 5900 5900 5899 5899 5898 5897 5895 5895 5895 5895 5894 5892 5890 5887 5888 5891
5886 5887 5888 5889 5889 5890 5892 5893 5894 5895 5895 5895 5894 5897 5897 5898 5898 5898 5898 5898 5898 5898 5897 5897 5895 5894 5894 5894 5894 5893 5893 5893 5892 5891 5890 5890 5889 5889 5888 5886 5886 5886 5886
5884 5885 5886 5888 5888 5888 5889 5889 5890 5891 5891 5892 5893 5893 5894 5893 5894 5894 5894 5894 5893 5893 5892 5892 5891 5890 5888 5888 5886 5886 5887 5886 5885 5884 5884 5884 5883 5882 5882 5881 5880 5880 5880
5883 5884 5885 5884 5885 5885 5886 5887 5887 5887 5888 5888 5888 5887 5887 5887 5887 5887 5886 5885 5885 5884 5884 5883 5882 5883 5882 5881 5880 5879 5878 5878 5878 5875 5876 5876 5874 5875 5874 5873 5873 5873 5872
5879 5879 5880 5881 5881 5881 5881 5881 5882 5882 5881 5882 5882 5883 5882 5882 5880 5880 5879 5878 5877 5876 5877 5876 5875 5873 5872 5871 5870 5870 5869 5869 5869 5868 5866 5866 5863 5863 5863 5864 5864 5864 5863
5875 5875 5874 5875 5876 5877 5877 5876 5876 5875 5875 5874 5874 5874 5874 5874 5873 5872 5871 5870 5869 5868 5868 5867 5866 5865 5864 5863 5861 5860 5859 5858 5858 5857 5855 5856 5853 5853 5852 5851 5851 5852 5852
5869 5870 5869 5869 5870 5870 5871 5871 5870 5869 5868 5867 5867 5866 5865 5866 5864 5863 5862 5861 5860 5858 5857 5857 5857 5856 5853 5851 5850 5849 5847 5846 5845 5843 5842 5841 5843 5841 5841 5841 5839 5838 5839
5861 5863 5863 5862 5863 5863 5864 5864 5863 5862 5861 5860 5859 5859 5856 5856 5855 5854 5853 5851 5850 5849 5848 5848 5846 5843 5841 5839 5837 5837 5835 5834 5832 5831 5828 5828 5827 5827 5827 5827 5827 5825 5826
Wind_Speed
4 6 6 7 3 2 1 1 2 3 3 3 4 4 5 7 8 10 9 4 3 5 8 14 20 16 12 12 13 14 15 14 14 15 15 15 15 14 11 9 7 4 5
5 6 7 6 8 5 4 2 3 3 2 3 5 4 3 3 5 9 10 9 7 6 11 19 20 14 12 12 14 14 14 13 13 14 13 14 13 12 10 10 8 6 10
4 6 7 6 8 5 5 1 2 6 7 3 4 3 3 3 4 7 7 8 11 14 12 11 12 11 11 13 13 12 12 13 13 12 11 10 10 11 11 10 9 9 11
6 7 6 6 3 2 3 1 3 6 6 4 3 4 1 1 4 2 5 6 7 10 9 7 8 9 9 10 13 13 12 12 12 13 11 9 8 8 9 10 10 10 10
9 9 7 6 4 4 5 3 3 5 5 2 2 5 2 1 3 4 5 5 6 7 4 5 6 8 8 9 13 14 13 11 11 10 9 8 7 6 6 8 10 11 11
10 10 7 6 6 6 8 7 4 2 2 2 3 3 1 2 2 3 2 1 4 7 7 6 7 6 7 8 9 13 13 12 10 9 9 8 7 5 4 4 7 10 11
10 10 9 7 6 5 2 5 5 4 2 2 5 3 1 3 4 4 1 2 3 4 5 7 8 8 8 9 9 10 13 13 12 9 8 8 7 6 4 4 4 7 11
12 12 9 12 10 7 5 4 5 6 4 1 4 0 4 5 5 6 5 3 4 4 4 4 6 8 8 9 11 9 11 12 12 11 10 9 7 6 5 5 6 7 9
16 13 12 13 13 10 8 3 3 4 4 2 2 4 3 2 6 2 6 4 3 4 5 5 5 7 7 7 9 10 10 11 11 11 12 11 9 9 9 8 7 8 9
12 14 13 13 14 13 12 6 4 4 3 3 6 7 7 6 6 6 4 10 10 6 6 6 6 5 6 7 6 8 9 11 13 13 13 12 12 12 11 11 10 10 11
11 10 13 14 17 16 14 9 6 5 3 5 5 4 2 4 4 6 9 4 10 8 6 6 6 6 6 7 7 7 7 8 9 11 11 12 13 14 13 14 14 13 13
12 10 11 12 18 16 13 11 8 6 5 6 4 3 3 2 2 3 6 3 6 8 6 5 5 7 8 9 9 9 9 9 9 9 10 10 11 13 14 14 14 14 14
8 10 12 13 15 14 14 12 9 8 6 6 5 3 2 0 1 2 3 4 4 5 6 7 5 6 6 7 9 11 12 12 12 12 12 12 12 13 13 13 14 15 15
10 13 15 16 15 13 12 10 9 8 8 8 7 5 3 3 3 1 1 1 2 2 3 6 10 7 7 7 10 12 14 13 13 14 15 16 17 17 16 16 16 16 17
13 17 16 16 16 15 12 10 9 10 10 8 7 6 6 5 4 3 1 2 2 3 4 4 4 5 6 6 6 6 8 11 10 12 14 18 19 19 20 20 20 20 19
16 18 17 17 16 14 13 11 10 9 8 8 8 7 7 8 6 5 3 3 2 2 2 5 6 7 8 7 6 7 8 11 13 14 13 12 16 21 21 23 24 24 24
20 21 18 15 15 12 11 11 10 9 8 9 9 8 8 9 7 7 6 6 6 7 6 7 7 7 9 9 9 9 10 11 12 12 14 15 16 18 21 23 26 27 26
11 12 13 7 8 9 10 10 10 10 10 10 9 9 8 9 9 8 8 10 9 10 11 10 10 11 13 13 14 14 13 13 12 12 13 15 17 20 24 28 32 31 28
6 8 8 8 8 9 10 10 15 13 12 13 12 11 10 10 11 11 12 13 12 13 15 17 17 16 16 17 18 18 18 18 19 19 19 18 18 19 19 22 19 20 25
6 8 9 10 10 10 11 12 13 14 14 13 12 13 12 15 16 16 17 18 18 19 19 21 22 23 23 23 22 22 22 22 23 24 22 22 22 22 21 20 19 22 25
10 10 11 12 12 13 14 15 16 16 16 16 17 18 18 19 20 22 23 24 24 25 25 26 27 28 29 30 31 30 29 30 28 29 28 27 26 27 26 25 24 24 25
14 13 14 14 15 15 15 16 17 16 17 17 17 18 20 21 24 25 26 27 28 28 29 29 30 30 31 33 35 35 36 36 35 38 36 33 35 31 31 31 30 28 30
19 18 18 18 19 20 20 20 21 21 21 22 24 25 26 25 28 28 29 30 31 32 33 34 34 35 35 36 36 38 39 38 40 41 43 41 42 40 38 36 36 34 36
23 22 21 21 22 23 24 23 23 25 24 24 26 28 29 29 30 31 32 34 36 37 37 37 37 38 39 39 39 40 41 41 41 41 44 44 46 44 44 44 43 41 41
26 27 26 24 25 25 27 27 27 27 27 27 28 29 30 30 32 33 35 37 39 40 39 40 41 41 41 41 42 43 44 45 44 45 47 48 45 47 46 45 46 47 47
28 29 28 26 27 27 28 29 30 30 30 31 32 32 34 35 37 39 40 40 40 40 40 40 39 41 41 43 44 44 44 44 45 43 45 48 48 49 49 48 47 48 49
Wind_Direction
28 45 35 11 3 30 132 15 314 349 17 345 89 89 59 72 58 49 57 68 78 304 181 165 155 166 176 182 178 179 176 178 182 183 182 181 174 166 175 184 170 165 198
348 14 1 353 336 270 197 231 333 346 318 305 66 50 83 85 81 60 51 77 86 117 132 149 154 167 179 179 172 168 169 172 174 176 177 180 181 179 182 184 172 154 164
314 333 354 355 2 130 157 178 287 288 10 92 52 53 62 75 59 60 64 72 91 115 125 141 163 169 181 180 175 172 170 167 172 173 176 178 175 173 182 188 179 171 167
284 314 318 329 358 279 163 229 310 304 352 297 45 17 58 116 85 94 103 98 107 123 135 140 163 181 182 186 185 184 177 163 166 169 171 170 161 168 177 185 189 192 192
265 277 303 304 292 261 229 222 292 341 355 159 37 353 278 186 95 100 136 127 151 153 160 165 168 190 190 193 201 200 193 184 175 168 176 185 182 175 169 184 195 201 205
260 266 270 271 275 277 236 225 248 324 303 310 341 317 181 215 190 166 145 82 161 178 179 180 203 203 201 199 209 213 210 202 200 187 182 182 181 187 187 186 208 215 218
249 254 253 257 260 273 209 234 240 248 232 330 316 336 282 250 240 228 271 235 187 181 191 180 197 205 207 197 201 216 220 218 211 203 198 195 191 195 216 223 221 224 223
242 265 237 242 237 254 226 250 266 231 232 288 20 24 305 272 281 254 224 224 216 204 201 201 198 202 209 206 200 209 218 218 219 210 203 210 227 228 233 237 240 243 234
257 262 249 245 228 222 210 209 233 186 221 238 79 25 32 100 328 291 218 226 224 231 232 215 217 207 210 212 212 205 215 222 225 225 222 219 226 237 242 249 259 254 243
290 251 252 230 203 200 185 174 209 195 172 135 100 90 77 72 46 31 315 250 235 219 220 230 227 227 216 214 223 229 223 227 236 240 243 245 245 240 238 240 243 245 241
283 259 230 199 195 189 187 184 202 174 148 158 128 125 72 66 49 6 359 292 213 211 215 224 233 238 243 236 225 225 225 233 236 239 248 256 257 253 247 244 245 246 247
277 257 212 198 183 180 183 187 195 186 169 149 141 135 74 26 65 25 17 32 178 194 213 222 235 236 237 237 239 235 237 240 240 242 242 245 252 260 263 262 261 259 252
222 201 206 190 181 183 185 191 194 190 188 160 160 164 212 119 32 45 39 60 132 192 230 234 235 244 245 258 259 250 246 242 241 244 250 252 251 251 254 258 260 262 262
230 201 181 180 184 189 190 193 195 198 193 184 190 207 234 261 305 261 166 142 157 217 245 242 240 244 251 265 279 262 245 255 257 261 261 262 261 259 256 254 255 258 261
217 203 194 187 184 186 190 202 202 200 197 199 205 221 242 247 260 273 238 216 222 242 252 256 258 261 263 261 285 307 250 239 264 263 264 267 258 259 260 260 260 260 258
204 195 191 184 184 189 194 201 203 198 204 214 222 224 230 230 233 244 270 296 296 288 273 274 268 271 265 270 273 268 259 259 272 273 278 284 264 248 255 258 256 255 256
206 198 182 190 192 194 197 203 209 215 221 229 229 222 223 227 238 250 264 274 284 296 297 290 291 284 281 285 280 275 269 267 270 272 275 277 272 264 263 258 256 253 251
129 151 163 179 169 196 205 212 215 214 213 224 231 234 237 243 256 262 269 273 277 283 286 283 280 287 290 292 294 291 290 289 288 282 281 274 273 276 273 274 272 255 247
164 183 202 207 205 198 198 205 204 210 226 227 223 237 248 256 262 265 267 268 269 272 278 284 284 280 275 276 279 281 283 285 288 288 288 286 285 289 289 293 282 249 242
218 216 215 218 220 228 229 235 246 251 250 256 265 268 267 269 274 275 274 272 272 272 272 274 277 281 284 284 281 279 278 277 276 276 276 280 284 288 290 290 281 265 259
240 236 241 243 239 237 243 249 253 255 257 261 264 270 273 274 278 277 278 280 283 282 282 281 280 281 282 282 283 284 285 284 283 285 285 284 281 282 282 282 281 277 273
257 257 256 252 251 248 247 251 258 263 268 268 266 267 266 266 264 266 268 269 270 272 271 271 272 274 276 279 279 281 283 285 286 285 284 282 281 277 276 275 275 273 277
251 252 255 261 263 263 261 262 262 261 264 269 271 270 270 269 269 270 272 272 271 272 274 275 276 276 275 274 275 278 278 279 280 283 283 284 283 283 280 276 274 274 273
252 254 254 258 261 264 266 268 268 269 270 271 272 274 276 277 276 277 279 279 280 280 281 282 281 282 283 283 282 281 280 280 279 278 278 279 279 280 280 281 281 278 275
250 254 257 258 263 266 267 268 268 268 269 271 273 274 275 274 276 277 278 279 280 281 281 283 284 285 284 284 284 284 283 284 283 282 281 279 276 276 274 274 275 276 277
251 255 256 256 261 263 267 268 267 267 268 268 269 273 276 278 280 281 282 282 283 284 285 283 279 280 280 281 281 282 283 284 283 281 279 280 279 277 276 274 272 272 271